TimeEST,TemperatureF,Dew PointF,Humidity,Sea Level PressureIn,VisibilityMPH,Wind Direction,Wind SpeedMPH,Gust SpeedMPH,PrecipitationIn,Events,Conditions,WindDirDegrees,DateUTC
12:52 AM,30.0,24.1,79,30.19,10.0,Calm,Calm,-,N/A,,Mostly Cloudy,0,2012-12-15 05:52:00
1:52 AM,34.0,25.0,70,30.20,10.0,NNW,4.6,-,N/A,,Overcast,340,2012-12-15 06:52:00
2:52 AM,35.1,26.1,70,30.21,10.0,NW,3.5,-,N/A,,Overcast,310,2012-12-15 07:52:00
3:52 AM,33.1,26.1,75,30.22,10.0,Calm,Calm,-,N/A,,Overcast,0,2012-12-15 08:52:00
4:52 AM,32.0,26.1,79,30.25,10.0,Calm,Calm,-,N/A,,Overcast,0,2012-12-15 09:52:00
5:52 AM,30.9,26.1,82,30.28,10.0,Calm,Calm,-,N/A,,Overcast,0,2012-12-15 10:52:00
6:52 AM,30.9,24.1,76,30.29,10.0,North,3.5,-,N/A,,Overcast,10,2012-12-15 11:52:00
7:52 AM,28.9,23.0,78,30.31,10.0,Calm,Calm,-,N/A,,Clear,0,2012-12-15 12:52:00
8:52 AM,32.0,21.9,66,30.32,10.0,Calm,Calm,-,N/A,,Clear,0,2012-12-15 13:52:00
9:52 AM,34.0,19.0,54,30.33,10.0,North,4.6,-,N/A,,Clear,10,2012-12-15 14:52:00
10:52 AM,34.0,17.1,50,30.32,10.0,WNW,9.2,-,N/A,,Clear,300,2012-12-15 15:52:00
11:52 AM,36.0,14.0,41,30.30,10.0,NNW,5.8,-,N/A,,Clear,330,2012-12-15 16:52:00
12:52 PM,37.9,14.0,38,30.29,10.0,NNW,5.8,-,N/A,,Clear,340,2012-12-15 17:52:00
1:52 PM,37.0,12.0,36,30.27,10.0,Calm,Calm,-,N/A,,Clear,0,2012-12-15 18:52:00
2:52 PM,37.9,10.0,32,30.28,10.0,NNE,3.5,-,N/A,,Clear,20,2012-12-15 19:52:00
3:52 PM,32.0,16.0,52,30.29,10.0,Calm,Calm,-,N/A,,Clear,0,2012-12-15 20:52:00
4:52 PM,28.0,16.0,61,30.30,10.0,Calm,Calm,-,N/A,,Clear,0,2012-12-15 21:52:00
5:52 PM,26.1,17.1,69,30.32,10.0,Calm,Calm,-,N/A,,Clear,0,2012-12-15 22:52:00
6:52 PM,25.0,17.1,72,30.33,10.0,Calm,Calm,-,N/A,,Clear,0,2012-12-15 23:52:00
7:52 PM,23.0,17.1,78,30.33,10.0,Calm,Calm,-,N/A,,Clear,0,2012-12-16 00:52:00
8:52 PM,23.0,16.0,74,30.35,10.0,Calm,Calm,-,N/A,,Clear,0,2012-12-16 01:52:00
9:52 PM,23.0,17.1,78,30.34,10.0,Calm,Calm,-,N/A,,Mostly Cloudy,0,2012-12-16 02:52:00
10:52 PM,25.0,16.0,69,30.33,10.0,Calm,Calm,-,N/A,,Overcast,0,2012-12-16 03:52:00
11:52 PM,25.0,18.0,75,30.32,10.0,Calm,Calm,-,N/A,,Mostly Cloudy,0,2012-12-16 04:52:00